Dewpoint
62 63 63 64 66 65 65 67 67 66 68 68 68 66 66 66 67 70 71 72 75 75 75 74 74 74 73 73 73 73 72 72 72 71 71 71 71 71 70 68 69 70 69 68 70 70 72 73 73 73 74 74 73 73 76 77 77 75 78 78 76 76 74
57 61 63 62 63 65 66 66 68 67 67 69 70 69 67 66 68 70 71 73 74 74 74 75 75 74 74 73 73 74 73 72 72 72 71 72 72 71 70 70 69 70 71 69 69 71 73 70 72 73 73 74 73 74 73 75 76 77 76 77 76 76 76
56 57 63 62 61 63 67 68 69 69 68 68 68 68 67 69 69 71 71 72 73 74 75 75 76 74 75 74 74 74 74 72 71 71 70 68 70 68 70 71 70 69 68 69 71 70 70 72 72 72 72 73 70 72 73 74 74 74 76 78 75 74 77
57 57 58 60 63 66 66 68 69 70 70 69 68 69 70 71 71 71 71 71 73 74 75 75 75 74 74 75 74 74 74 73 72 70 68 67 68 68 69 70 71 69 68 68 67 68 67 70 71 72 73 72 72 71 72 72 72 73 74 76 76 75 77
57 58 59 59 61 63 64 65 68 70 72 67 69 72 68 71 68 69 69 70 70 74 74 73 73 73 75 75 73 73 74 73 72 70 69 67 68 69 68 67 68 68 67 67 69 69 71 71 69 71 72 73 71 72 72 72 72 73 74 74 74 72 74
54 56 57 58 63 61 62 63 64 68 70 72 71 71 71 72 70 70 70 71 73 74 73 73 72 73 73 72 72 71 74 75 74 73 70 69 68 66 67 67 67 68 65 67 67 67 68 69 69 70 70 70 70 69 69 71 70 71 72 73 73 72 70
55 56 57 58 59 59 60 62 64 67 69 71 73 71 69 71 72 71 71 73 73 71 72 73 71 74 75 73 72 72 73 72 74 72 69 68 67 67 67 68 68 66 66 67 67 68 68 69 70 71 70 69 70 67 70 72 71 71 72 74 74 73 73
55 55 56 57 57 58 59 61 62 65 69 69 68 71 73 72 74 72 71 71 70 69 72 71 71 73 73 73 72 72 71 72 72 73 71 67 66 67 66 67 67 68 67 65 67 68 67 69 68 69 69 69 69 70 68 71 73 69 70 71 72 72 69
55 56 55 56 57 57 59 61 61 61 61 62 64 67 73 73 70 70 72 72 69 70 69 68 68 70 71 71 73 73 72 72 72 72 71 67 65 65 63 65 66 67 67 65 64 67 68 67 68 70 70 70 70 71 69 71 71 71 70 70 71 71 70
55 55 56 55 57 57 59 59 60 61 61 61 62 65 65 72 72 73 73 72 73 72 72 69 67 68 70 71 70 71 71 73 73 70 69 67 65 64 63 61 63 66 66 65 62 63 67 68 68 69 71 70 71 70 71 70 70 70 70 70 70 71 72
53 55 55 55 56 57 58 58 59 60 60 61 61 63 65 66 70 71 72 72 70 71 72 68 69 68 67 68 69 69 70 70 73 70 70 70 64 63 62 61 60 63 65 64 62 61 64 68 68 70 70 68 69 70 71 70 71 71 69 69 69 71 69
52 53 53 54 54 55 56 57 58 59 59 59 58 58 60 61 64 64 70 69 71 72 71 70 67 67 68 68 67 69 68 68 68 69 68 68 65 63 62 61 60 60 63 64 62 62 60 64 66 67 69 70 70 70 71 72 72 72 71 68 67 68 69
50 51 52 52 53 54 55 56 57 58 58 56 56 57 58 59 59 62 64 67 71 70 68 69 69 69 68 69 68 68 67 66 68 70 69 69 68 65 64 62 60 59 60 62 63 61 60 60 66 67 67 70 70 69 71 71 71 73 73 71 69 67 68
51 48 49 51 52 52 53 55 56 57 57 55 54 56 56 57 58 59 61 61 63 65 67 67 68 67 67 68 68 69 67 68 69 70 71 71 72 69 66 63 62 62 62 63 62 61 60 59 60 65 67 67 69 70 70 70 70 72 73 72 70 67 67
45 45 46 46 50 52 52 51 53 54 54 54 54 55 55 55 56 58 59 60 62 61 63 66 68 68 68 67 68 69 71 72 71 72 72 71 72 71 70 68 66 65 65 65 63 60 59 59 58 62 65 66 68 69 67 65 67 69 71 71 71 69 66
42 43 44 45 47 47 50 50 51 53 54 54 53 54 53 53 55 55 56 57 58 61 61 63 66 68 68 68 68 69 70 72 74 75 74 71 73 74 72 70 70 67 66 65 64 66 66 66 62 59 61 64 66 66 65 64 63 69 68 70 71 70 66
42 42 43 45 47 46 48 49 49 50 52 52 52 53 54 53 53 53 54 55 57 59 60 62 65 66 67 68 69 68 70 71 72 73 74 75 73 74 74 73 71 70 72 69 67 69 72 68 64 61 59 60 63 64 62 60 60 65 63 64 67 70 70
43 44 43 44 45 46 47 46 48 49 49 48 48 50 51 53 51 51 52 54 56 57 59 63 64 66 69 69 70 72 72 73 72 73 73 74 75 75 75 75 73 73 71 69 68 71 67 67 67 68 63 61 61 60 61 60 62 60 62 63 63 68 71
42 44 43 45 46 47 45 45 46 48 47 48 50 49 48 47 47 52 54 55 56 59 59 62 63 66 68 69 71 72 72 72 73 72 73 75 75 76 75 74 73 73 71 69 70 69 71 72 69 69 68 66 65 61 60 60 61 59 60 62 62 63 68
42 42 43 43 45 47 49 48 48 47 47 49 48 46 46 48 46 48 49 52 57 59 60 62 63 66 65 66 68 69 71 72 72 72 73 74 74 74 74 74 73 74 74 73 71 71 70 69 70 70 72 70 69 69 65 63 62 59 59 60 61 62 65
45 44 44 44 45 44 47 49 49 50 50 49 48 50 48 45 45 45 47 50 52 54 58 59 62 63 63 64 66 67 68 69 70 71 71 72 74 73 73 73 73 73 74 74 74 71 71 71 70 71 71 70 69 69 66 65 62 59 57 58 59 61 63
46 43 43 43 44 46 47 44 47 47 49 51 50 49 48 48 47 44 44 46 48 52 55 57 60 61 62 63 63 64 65 66 68 70 71 72 72 72 73 73 74 73 74 74 75 74 74 75 73 72 70 70 70 69 68 67 61 59 57 57 58 60 68
44 45 43 43 41 42 46 46 45 45 47 46 47 48 50 51 50 47 45 45 44 51 55 55 57 60 64 63 63 64 65 66 68 69 70 70 71 71 72 72 74 74 74 74 73 74 75 73 74 73 72 71 71 70 70 68 65 59 56 56 57 61 69
40 44 43 43 42 41 44 45 44 43 44 44 43 46 48 50 50 48 49 47 44 43 49 50 53 56 59 61 63 60 61 65 67 67 69 69 69 70 72 73 73 74 75 75 74 74 72 73 73 72 72 71 70 69 70 70 68 59 56 55 56 63 71
38 38 41 40 39 39 40 44 45 44 44 43 41 45 46 46 48 48 47 49 47 44 44 46 50 53 55 56 59 60 60 59 62 65 67 69 70 70 71 71 72 73 74 74 74 73 73 73 72 72 71 69 69 72 69 69 68 59 56 55 54 63 72
39 38 38 37 37 40 43 45 44 41 39 38 43 44 45 43 46 49 50 50 47 44 44 47 49 51 52 56 58 60 62 63 62 64 67 68 69 71 73 73 72 72 72 73 73 72 71 71 72 71 70 69 69 69 69 68 70 72 56 54 54 56 72
37 37 37 35 38 45 39 39 38 38 38 41 45 42 42 44 44 47 50 51 50 49 47 47 49 50 53 54 55 57 58 60 61 64 65 67 70 72 72 74 72 72 71 70 70 70 71 71 71 70 71 70 69 69 69 68 67 73 56 54 53 54 60
36 36 36 40 43 41 38 35 39 40 37 41 40 40 41 44 47 50 51 50 50 51 49 51 52 52 52 54 55 55 57 60 62 62 63 65 67 69 71 73 73 72 71 70 70 71 71 72 72 71 70 70 70 70 70 71 70 68 59 54 53 52 53
41 39 40 41 40 38 36 39 38 38 40 38 38 40 42 42 48 50 51 51 53 52 52 52 52 53 53 53 54 56 58 61 62 63 63 63 65 66 67 68 68 71 71 70 71 71 71 71 72 72 72 71 71 70 71 73 74 67 69 55 52 52 52
43 42 40 37 36 38 39 40 42 42 41 40 42 43 44 46 49 50 51 53 54 54 54 55 55 55 54 54 53 53 53 55 57 59 60 60 61 62 65 65 66 69 70 70 71 71 71 71 72 71 71 71 71 70 69 71 73 71 66 66 52 52 51
42 43 42 42 39 43 42 41 42 41 41 41 44 45 48 48 49 50 51 53 54 55 55 55 55 54 54 54 54 54 54 55 57 57 58 59 59 61 62 64 65 66 69 70 70 70 70 70 71 71 71 71 72 70 74 71 76 75 72 63 55 52 51
44 45 45 44 44 45 45 43 43 42 43 44 45 45 48 48 48 51 52 53 54 54 54 55 56 56 56 55 55 56 56 55 53 54 56 57 59 62 63 63 63 64 65 66 67 68 69 70 70 70 71 71 75 73 73 73 73 73 73 74 63 57 52
44 45 46 46 47 47 46 47 45 46 46 47 47 47 47 49 50 52 53 54 53 53 54 54 55 55 56 55 54 55 57 59 58 57 56 57 57 57 58 60 61 64 65 66 66 67 67 67 69 70 71 75 72 71 72 72 73 72 74 76 76 74 69
45 45 46 46 47 47 47 47 48 48 48 48 49 49 49 50 50 52 53 53 53 52 53 54 53 53 54 53 52 51 50 50 54 55 54 53 52 50 52 55 58 60 62 64 64 66 67 68 68 72 73 74 73 72 71 70 70 71 73 75 76 75 75
44 45 45 44 45 47 46 47 47 48 47 47 48 49 50 51 51 51 52 52 53 54 54 53 54 54 53 52 52 51 53 50 51 51 52 52 54 51 55 58 60 60 61 62 62 63 64 65 65 67 71 72 72 72 71 71 71 73 58 67 57 66 71
43 43 43 44 44 45 46 47 47 48 48 48 49 49 50 50 50 50 49 50 50 52 53 54 53 52 52 52 52 52 52 51 49 50 52 52 53 54 54 59 55 60 59 59 62 59 55 54 63 64 63 63 65 68 69 70 72 63 55 54 54 52 55
41 40 41 42 43 44 45 46 46 47 47 47 48 47 48 49 49 49 48 50 51 51 53 54 53 53 52 54 54 54 54 52 52 54 55 56 56 57 54 52 57 50 51 54 58 56 54 53 52 53 54 62 64 64 59 59 57 55 53 52 53 52 51
38 39 40 40 42 44 44 45 45 46 47 47 47 46 47 46 47 49 47 49 50 50 52 52 52 52 51 51 52 53 55 52 53 54 56 57 58 58 58 57 58 59 55 50 51 52 51 50 50 50 51 52 55 59 63 59 55 51 51 51 50 50 49